Location: Ostrava
(49.8330°N, 18.2830°E)
Time: 16:58:18
(UTC+01:00)

Iridium 7 - Visible Passes

Search period start: 20 January 2017 00:00
Search period end: 30 January 2017 00:00
Orbit: 776 x 779 km, 86.4° (Epoch: 19 January)

Date Brightness Start Highest point End Pass type
(mag) Time Alt. Az. Time Alt. Az. Time Alt. Az.
20 Jan 6.5 04:11:46 10° N 04:16:47 45° E 04:21:47 10° SSE visible
20 Jan 6.3 05:52:55 10° NNW 05:57:18 28° W 06:01:40 10° SW visible
20 Jan 5.5 17:13:07 10° S 17:18:19 80° E 17:23:34 10° N visible
20 Jan 8.3 18:56:25 10° WSW 18:59:44 17° WNW 19:03:04 10° NNW visible
21 Jan 7.4 03:38:35 10° NNE 03:43:02 27° ENE 03:47:27 10° SE visible
21 Jan 5.7 05:19:00 10° NNW 05:23:59 46° W 05:28:56 10° SSW visible
21 Jan 7.6 18:21:26 10° SW 18:25:50 27° WNW 18:30:17 10° NNW visible
22 Jan 8.1 03:10:05 16° E 03:10:05 16° E 03:12:28 10° ESE visible
22 Jan 5.4 04:50:44 78° WSW 04:50:44 78° WSW 04:55:45 10° S visible
22 Jan 7.3 06:31:22 12° W 06:31:22 12° W 06:32:24 10° W visible
22 Jan 6.7 17:47:06 10° SSW 17:52:04 45° W 17:57:05 10° N visible
23 Jan 6.8 04:19:23 31° SSE 04:19:23 31° SSE 04:22:08 10° SSE visible
23 Jan 7.3 05:59:59 14° WSW 05:59:59 14° WSW 06:01:01 10° SW visible
23 Jan 5.8 17:13:13 10° S 17:18:26 76° W 17:23:41 10° N visible
23 Jan 8.5 18:58:01 10° W 19:00:09 12° WNW 19:02:16 10° NW visible
24 Jan 8.1 03:47:43 12° SE 03:47:43 12° SE 03:48:06 10° SE visible
24 Jan 7.6 05:28:17 12° SW 05:28:17 12° SW 05:28:38 10° SW visible
24 Jan 8.1 18:22:19 10° WSW 18:26:09 20° WNW 18:30:00 10° NNW visible
25 Jan8.803:15:50SE03:15:50SE03:03:31Nvisible
25 Jan8.104:56:24SSW04:56:24SSW04:43:58Nvisible
25 Jan 7.3 17:47:38 10° SW 17:52:18 33° WNW 17:57:01 10° NNW visible
26 Jan8.604:24:25S04:24:25S04:10:21Nvisible
26 Jan 6.4 17:13:29 10° SSW 17:18:36 55° W 17:23:45 10° N visible
27 Jan 8.3 18:23:33 10° WSW 18:26:31 15° WNW 18:29:31 10° NNW visible
28 Jan 7.8 17:48:22 10° SW 17:52:36 25° WNW 17:56:51 10° NNW visible
29 Jan 7.0 17:13:55 10° SSW 17:18:48 40° WNW 17:23:44 10° N visible
